AQI (54)

Current Conditions for Foresthill, CA. Clear skies, Dry   
Visibility: 10 miles
Foresthill Advisory text: No Warning

  Summary / Temperature 

Current Temperature
59.0°F
15°C
(24/hr Ago)
58.6°F
(Apparent temp)
52.4°F
Cool
Wind Chill Graphs
59.0°F 

59.0°F/ 15°C
 --- Virtual Temp: 60.2°F ---

 Temp Rate:

 24/hr Difference:

 Avg Running Temp:

 Todays High:

 Todays Low:

 Y-days High:

 Y-days Low:

 Todays WChill:

 Y-days WChill:

 Evapotranspiration:

-0.9°F/hr 

+0.4°F

59.7°F

62.7°F 12:00am

59.0°F 5:10am

78.2°F 2:50pm

56.2°F 7:33am

55.3°F 5:23am

52.7°F 7:32am

0.014 in

115' Above Ground

 Temperature:

 6'AGL VRS 115'AGL:

 Avg Running Temp:

 Humidity:

 Todays High:

 Todays Low:

 Y-days High:

 Y-days Low:

62.0°F 

+3°F

62.5°F

22% 

66.0°F 12:00am

62.0°F 4:07am

80.0°F 2:48pm

60.0°F 6:25am

Temp & Humidity Graphs

  Wind 

Wind Speed

 2.0 mph

Gusting to

 21.0 mph

Wind from ESE

111°  ESE

Light air

 Avg speed:

 Wind Run:

 Peak Gust:

  5.0 mph 

24.0 miles

  21.0 mph 5:21am

  Almanac  

Moon age: 7 days,21 hours,22 minutes,55%

Waxing Gibbous
58%
Illuminated
8 days in cycle

 Moonrise:

 Moonset:

 Sunrise:

 Sunset:

 Solar Noon:

2:51pm

12:24am

7:01am

6:45pm

12:52pm

2min 31s less daylight tomorrow 

  Solar Radiation 

(Current Solar)
  No Sun Light
(Todays High)
 None@12:00am

Rain

 Rain Today:

 Rain Rate (/hr):

 Rain last hour:

 Rain Yesterday:

 This Month:

 Season Total:

3 Days Since Last Rain Day

0.00 in

0.000 in

0.00 in

0.00 in

0.00 in

1.84 in

Updated Time

Updated: 10/2/14  5:25am

(Updated  sec ago)

Humidity & Barometer

 Humidity:

 Wetbulb:

 Dew Point:

 Barometer:

34% 

48.0°F 

30.6°F 

30.015 inHg 

 Baro Trend:  Steady 
Northern Calif
Preparedness
Fire 
Level 

    UV Index  

(Current UV)
0.0  None
(Todays High) @ 12:00am
0.0   None

Weather Underground 5 day Forecast

Thu Fri Sat Sun Mon
Clear Clear Clear Partly Cloudy Partly Cloudy
Clear Clear Clear Partly Cloudy Partly Cloudy
81 84 88 82 82
59 61 59 59 57

Foresthill Probe 2 Stats  
Foresthill Probe 2: is located on Thomas Street
at 3000 feet. The main Foresthill Weather site
is located on Melody ln at the 2860 foot elevation

Light Air
56.6°F
13.7°C
Temp Rate:
-1.2°F
2.0 mph
Gusting to
3.0 mph
(Humidity)
34%
Wind from SE
131°  SE
Updated: 02/10/14 - 05:23:10
 Todays High: 62.8°F 00:34
 Todays Low: 56.6°F 05:01
 Rain Today: 0.00 in
 Season Total: 1.91 in

Foresthill Wx: Monthly,Yearly, Highs and Lows 

Foresthill  
This Weather Data is coming from the main Foresthill
Weather site located on Melody ln at the 2860 foot
elevation
Not Foresthill Probe 2
Weather Data
Month
  High
Month
  Low
Year
High
Year
Low
Temp 78.2F
10/1/14
56.2F
10/1/14
96.4F
7/14/14
32.0F
2/4/14
Humidity 78%
10/1/14
22%
10/1/14
100%
3/1/14
11%
5/16/14
Heat Index 77.1F
10/1/14
57.5F
10/1/14
95.0F
7/14/14
35.5F
2/5/14
Wind Chill 78.2F
10/1/14
52.7F
10/1/14
96.4F
7/14/14
21.6F
2/5/14
Wind Gust 26 mph
10/1/14
0 mph
10/1/14
40 mph
3/12/14
0 mph
1/1/14
Barometer 30.02 in
10/2/14
29.86 in
10/1/14
30.55 in
1/14/14
29.47 in
2/28/14
ET 0.17 in
10/1/14
0.00 in
10/1/14
0.27 in
7/4/14
0.00 in
1/1/14
Dew Point 52.0F
10/1/14
29.3F
10/2/14
64.6F
8/4/14
5.1F
1/4/14
Infrared Satellite Regional Radar Satellite Imagery Sacramento,CA.  (click to enlarge)
NWS Weather Forecast - Outlook: Today and Tonight
Today

Sunny
Sunny

Hi 80 °F
NWS forecast: Sunny, with a high near 80. Northeast wind 5 to 10 mph becoming light and variable.
Tonight

Clear
Clear

Lo 60 °F
NWS forecast: Clear, with a low around 60. Calm wind becoming east northeast 5 to 8 mph after midnight.
NWS Weather Forecast - Summary
Updated: Thursday, October 2, 2014 - 3:08am (PDT)
YR.NO 10 Day Weather forecast
Last update: 10/02/2014 @ 00:04
Next update: 10/02/2014 @ 13:00
Provided by: 22
      Temperature Precipitation Pressure Wind  
Today
10/02/2014
05:00 11:00 50°F   29.99 inHg Light breeze from east-northeast 7 mph
  11:00 17:00 75°F   30.05 inHg Light air from south-southwest 3 mph
  17:00 23:00 77°F   30.02 inHg Light breeze from west 5 mph
  23:00 05:00 55°F   30.06 inHg Light breeze from east-northeast 5 mph
    (Click to enlarge)
meteogram

    Forecast for next 9 days

      Temperature Precip Pressure Wind  
Friday
10/03/2014
05:00 11:00 52°F   30.07 inHg Light breeze from east-northeast 6 mph
  11:00 17:00 79°F   30.10 inHg Light air from southwest 1 mph
  17:00 23:00 81°F   30.05 inHg Light breeze from west 5 mph
  23:00 05:00 55°F   30.07 inHg Light breeze from east-northeast 5 mph
      Temperature Precip Pressure Wind  
Saturday
10/04/2014
05:00 11:00 52°F   30.03 inHg Light breeze from east-northeast 5 mph
  11:00 17:00 81°F   30.02 inHg Light air from west-southwest 2 mph
  17:00 23:00 82°F   29.96 inHg Light breeze from west-southwest 4 mph
  23:00 05:00 57°F   29.96 inHg Light breeze from east-northeast 6 mph
      Temperature Precip Pressure Wind  
Sunday
10/05/2014
05:00 11:00 55°F   29.93 inHg Light breeze from east-northeast 7 mph
  11:00 17:00 81°F   29.94 inHg Light air from west-southwest 1 mph
  17:00 23:00 81°F   29.91 inHg Light breeze from west-southwest 4 mph
  23:00 05:00 57°F   29.95 inHg Light air from east-northeast 3 mph
      Temperature Precip Pressure Wind  
Monday
10/06/2014
05:00 11:00 54°F   29.93 inHg Light breeze from east-northeast 5 mph
  11:00 17:00 81°F   29.97 inHg Light air from west-southwest 2 mph
  17:00 23:00 81°F   29.93 inHg Light breeze from west 4 mph
  23:00 05:00 55°F   29.97 inHg Light breeze from east-northeast 4 mph
      Temperature Precip Pressure Wind  
Tuesday
10/07/2014
05:00 11:00 50°F   29.94 inHg Light air from east-northeast 3 mph
  11:00 17:00 79°F   29.96 inHg Light air from west-southwest 2 mph
  17:00 23:00 79°F   29.90 inHg Light breeze from west-southwest 4 mph
  23:00 05:00 55°F   29.92 inHg Light air from east-northeast 3 mph
      Temperature Precip Pressure Wind  
Wednesday
10/08/2014
05:00 11:00 48°F   29.89 inHg Light breeze from east-northeast 4 mph
  11:00 17:00 77°F   29.89 inHg Light air from west-southwest 2 mph
  17:00 23:00 75°F   29.85 inHg Light breeze from west-southwest 5 mph
  23:00 05:00 55°F   29.90 inHg Light air from east 3 mph
      Temperature Precip Pressure Wind  
Thursday
10/09/2014
05:00 11:00 50°F   29.88 inHg Light breeze from east 5 mph
  11:00 17:00 72°F   29.93 inHg Light breeze from southwest 6 mph
  17:00 23:00 72°F   29.90 inHg Light breeze from southwest 5 mph
  23:00 05:00 54°F   29.94 inHg Light breeze from east 4 mph
      Temperature Precip Pressure Wind  
Friday
10/10/2014
05:00 11:00 48°F   29.93 inHg Light breeze from east-northeast 5 mph
  11:00 17:00 72°F   29.98 inHg Light breeze from southwest 4 mph
  17:00 23:00 72°F   29.95 inHg Light breeze from west 5 mph
  23:00 05:00 52°F   29.99 inHg Light breeze from east-northeast 4 mph
      Temperature Precip Pressure Wind  
Saturday
10/11/2014
05:00 11:00 50°F   29.98 inHg Light breeze from east-northeast 5 mph
  11:00 17:00 75°F   30.00 inHg Light air from west-southwest 2 mph

Weather History For Thursday, October 2, 2014


On this Day - In Weather History ...
Data courtesy of weatherforyou.com
powered by Cumulus v1.9.3 (1059)
Ambient Weather VWS v14.00
Top Contact Website Map Copyright © 2007 - 2014 Foresthillweather.com Never base important decisions on this or any weather information obtained from the Internet